Tracking 33094 objects as of 25-Jan-2026
HD Live streaming from Space Station
objects crossing your sky now

THOR ABLESTAR R/B

Track THOR ABLESTAR R/B now!
10-day predictions


NORAD ID: 893
Int'l Code: 1964-063A
Perigee: 1,038.7 km
Apogee: 1,073.9 km
Inclination: 90.2 °
Period: 106.2 minutes
Semi major axis: 7427 km
RCS: 4.0212 m2 (large)
Launch date: October 6, 1964
Source: United States (US)
Launch site: AIR FORCE WESTERN TEST RANGE (AFWTR)

Note: This is a ROCKET BODY
Your satellite tracking list
Your tracking list is empty




NASA's NSSDC Master Catalog

Two Line Element Set (TLE):
1 00893U 64063A   26024.60718957  .00000048  00000-0  56537-4 0  9998
2 00893  90.2266  71.8528 0023674 283.6894 241.3192 13.56309548 32517
Source of the keplerian elements: AFSPC